Date String (YYYY-MM-DD hh:mm:ss) UTC,Instrument flags,absolute air pressure of the measurement (hPa),sample flow rate (lpm),inlet stack bypass flow (lpm),air temperature of the measurement (°C),ambient temperature measured by the external sensor (°C),aerosol sample conditioner tube jacket temperature (°C),OPC LED temperature (°C),internal box temperature (°C),relative humidity of the measurement (%),span deviation,mass concentration of particles derived from Lorenz-Mie calculation of OPC scattering (μg/m³),mass concentration of particles derived from Lorenz-Mie calculation of OPC scattering (μg/m³),mass concentration of particles derived from Lorenz-Mie calculation of OPC scattering (μg/m³)
DateTimeUTC,F1_M11,P_M11,Q1_M11,Q2_M11,T1_M11,T2_M11,T3_M11,T4_M11,T5_M11,U1_M11,ZSPAN_M11,X2_M11,X0_M11,X1_M11
2024-04-14 08:00:00,SystemResetWarning,0828.1,5.00,000.00,026.0,025.2,000.0,034.4,027.7,011.5,0000.0,0004.49,0012.59,0002.93
2024-04-14 08:01:00,SystemResetWarning,0828.1,5.00,000.00,026.0,025.2,000.0,034.4,027.7,011.6,0000.0,0004.49,0013.35,0002.92
2024-04-14 08:02:00,SystemResetWarning,0828.1,5.00,000.00,026.0,025.2,000.0,034.4,027.7,011.6,0000.0,0004.51,0014.55,0002.92
2024-04-14 08:03:00,SystemResetWarning,0828.2,4.98,000.00,026.0,025.2,000.0,034.4,027.7,011.6,0000.0,0004.43,0014.38,0002.91
2024-04-14 08:04:00,SystemResetWarning,0828.2,5.00,000.00,026.0,025.2,000.0,034.4,027.7,011.6,0000.0,0004.38,0014.32,0002.90
2024-04-14 08:05:00,SystemResetWarning,0828.1,5.01,000.00,026.0,025.1,000.0,034.4,027.7,011.6,0000.0,0004.33,0014.17,0002.91
2024-04-14 08:06:00,SystemResetWarning,0828.1,5.01,000.00,025.9,025.2,000.0,034.4,027.7,011.5,0000.0,0004.30,0014.05,0002.92
2024-04-14 08:07:00,SystemResetWarning,0828.1,5.00,000.00,025.9,025.1,000.0,034.4,027.7,011.5,0000.0,0004.31,0013.80,0002.92
2024-04-14 08:08:00,SystemResetWarning,0828.1,5.00,000.00,025.9,025.1,000.0,034.4,027.7,011.5,0000.0,0004.34,0013.64,0002.92
2024-04-14 08:09:00,SystemResetWarning,0828.1,5.00,000.00,025.9,025.1,000.0,034.4,027.7,011.6,0000.0,0004.39,0013.98,0002.91
2024-04-14 08:10:00,SystemResetWarning,0828.1,4.99,000.00,025.9,025.1,000.0,034.4,027.7,011.5,0000.0,0004.39,0014.94,0002.88
2024-04-14 08:11:00,SystemResetWarning,0828.1,5.00,000.00,025.9,025.1,000.0,034.4,027.7,011.5,0000.0,0004.36,0015.33,0002.88
2024-04-14 08:12:00,SystemResetWarning,0828.1,4.99,000.00,025.9,025.1,000.0,034.4,027.7,011.5,0000.0,0004.35,0014.40,0002.90
2024-04-14 08:13:00,SystemResetWarning,0828.1,5.00,000.00,025.9,025.1,000.0,034.4,027.7,011.6,0000.0,0004.29,0013.34,0002.89
2024-04-14 08:14:00,SystemResetWarning,0828.1,5.00,000.00,025.9,025.1,000.0,034.4,027.7,011.6,0000.0,0004.37,0013.54,0002.91
2024-04-14 08:15:00,SystemResetWarning,0828.1,5.01,000.00,025.9,025.1,000.0,034.4,027.7,011.6,0000.0,0004.38,0012.79,0002.91
2024-04-14 08:16:00,SystemResetWarning,0828.1,5.00,000.00,025.9,025.1,000.0,034.4,027.7,011.6,0000.0,0004.35,0012.52,0002.90
2024-04-14 08:17:00,SystemResetWarning,0828.1,4.99,000.00,025.9,025.1,000.0,034.4,027.7,011.6,0000.0,0004.35,0013.67,0002.90
2024-04-14 08:18:00,SystemResetWarning,0828.1,4.99,000.00,025.9,025.1,000.0,034.4,027.7,011.6,0000.0,0004.33,0014.05,0002.89
2024-04-14 08:19:00,SystemResetWarning,0828.1,5.00,000.00,025.9,025.1,000.0,034.4,027.7,011.6,0000.0,0004.31,0014.14,0002.88
2024-04-14 08:20:00,SystemResetWarning,0828.1,4.99,000.00,025.9,025.1,000.0,034.4,027.7,011.6,0000.0,0004.25,0013.80,0002.86
2024-04-14 08:21:00,SystemResetWarning,0828.1,5.00,000.00,025.9,025.1,000.0,034.4,027.7,011.7,0000.0,0004.20,0012.66,0002.83
2024-04-14 08:22:00,SystemResetWarning,0828.1,5.00,000.00,025.9,025.1,000.0,034.4,027.7,011.7,0000.0,0004.19,0012.04,0002.81
2024-04-14 08:23:00,SystemResetWarning,0828.2,5.01,000.00,025.9,025.1,000.0,034.4,027.7,011.7,0000.0,0004.19,0012.40,0002.79
2024-04-14 08:24:00,SystemResetWarning,0828.2,5.00,000.00,025.9,025.1,000.0,034.4,027.7,011.7,0000.0,0004.21,0011.98,0002.80
2024-04-14 08:25:00,SystemResetWarning,0828.2,5.00,000.00,025.9,025.1,000.0,034.3,027.7,011.7,0000.0,0004.19,0012.14,0002.78
2024-04-14 08:26:00,SystemResetWarning,0828.2,5.00,000.00,025.9,025.1,000.0,034.4,027.7,011.8,0000.0,0004.18,0012.06,0002.78
2024-04-14 08:27:00,SystemResetWarning,0828.1,5.01,000.00,025.9,025.1,000.0,034.3,027.6,011.8,0000.0,0004.22,0012.81,0002.78
2024-04-14 08:28:00,SystemResetWarning,0828.2,5.00,000.00,025.9,025.1,000.0,034.3,027.7,011.8,0000.0,0004.23,0012.06,0002.77
2024-04-14 08:29:00,SystemResetWarning,0828.2,5.00,000.00,025.9,025.1,000.0,034.3,027.7,011.8,0000.0,0004.17,0011.16,0002.77
2024-04-14 08:30:00,SystemResetWarning,0828.2,5.00,000.00,025.9,025.1,000.0,034.3,027.7,011.8,0000.0,0004.20,0011.10,0002.76
2024-04-14 08:31:00,SystemResetWarning,0828.1,4.99,000.00,025.9,025.1,000.0,034.3,027.7,011.8,0000.0,0004.22,0011.54,0002.76
2024-04-14 08:32:00,SystemResetWarning,0828.2,5.00,000.00,025.9,025.1,000.0,034.3,027.6,011.8,0000.0,0004.22,0011.40,0002.77
2024-04-14 08:33:00,SystemResetWarning,0828.2,5.00,000.00,025.9,025.1,000.0,034.3,027.7,011.8,0000.0,0004.19,0011.84,0002.78
2024-04-14 08:34:00,SystemResetWarning,0828.2,5.00,000.00,025.9,025.1,000.0,034.3,027.6,011.8,0000.0,0004.22,0012.01,0002.78
2024-04-14 08:35:00,SystemResetWarning,0828.2,5.00,000.00,025.9,025.1,000.0,034.3,027.6,011.8,0000.0,0004.21,0012.42,0002.77
2024-04-14 08:36:00,SystemResetWarning,0828.1,5.00,000.00,025.9,025.1,000.0,034.3,027.7,011.8,0000.0,0004.21,0014.91,0002.78
2024-04-14 08:37:00,SystemResetWarning,0828.1,5.01,000.00,025.9,025.1,000.0,034.3,027.6,011.8,0000.0,0004.20,0015.57,0002.77
2024-04-14 08:38:00,SystemResetWarning,0828.1,5.00,000.00,025.9,025.1,000.0,034.3,027.6,011.8,0000.0,0004.22,0016.03,0002.77
2024-04-14 08:39:00,SystemResetWarning,0828.1,5.01,000.00,025.9,025.1,000.0,034.3,027.6,011.8,0000.0,0004.24,0016.03,0002.78
2024-04-14 08:40:00,SystemResetWarning,0828.1,5.00,000.00,025.9,025.1,000.0,034.3,027.6,011.8,0000.0,0004.31,0016.26,0002.80
2024-04-14 08:41:00,SystemResetWarning,0828.0,5.00,000.00,025.8,025.1,000.0,034.3,027.6,011.8,0000.0,0004.28,0016.15,0002.80
2024-04-14 08:42:00,SystemResetWarning,0828.0,5.00,000.00,025.8,025.1,000.0,034.3,027.6,011.8,0000.0,0004.30,0016.04,0002.82
2024-04-14 08:43:00,SystemResetWarning,0828.1,5.00,000.00,025.8,025.1,000.0,034.3,027.6,011.8,0000.0,0004.31,0017.23,0002.83
2024-04-14 08:44:00,SystemResetWarning,0828.1,5.00,000.00,025.8,025.1,000.0,034.3,027.6,011.8,0000.0,0004.31,0016.95,0002.84
2024-04-14 08:45:00,SystemResetWarning,0828.1,5.00,000.00,025.8,025.1,000.0,034.3,027.6,011.8,0000.0,0004.28,0016.58,0002.84
2024-04-14 08:46:00,SystemResetWarning,0828.1,5.00,000.00,025.8,025.1,000.0,034.3,027.6,011.8,0000.0,0004.34,0016.59,0002.85
2024-04-14 08:47:00,SystemResetWarning,0828.1,5.00,000.00,025.8,025.1,000.0,034.3,027.6,011.8,0000.0,0004.36,0014.07,0002.86
2024-04-14 08:48:00,SystemResetWarning,0828.1,5.00,000.00,025.8,025.1,000.0,034.3,027.6,011.8,0000.0,0004.38,0013.89,0002.87
2024-04-14 08:49:00,SystemResetWarning,0828.1,5.00,000.00,025.8,025.1,000.0,034.3,027.6,011.8,0000.0,0004.37,0013.19,0002.87
2024-04-14 08:50:00,SystemResetWarning,0828.1,5.00,000.00,025.8,025.1,000.0,034.3,027.6,011.8,0000.0,0004.38,0013.64,0002.87
2024-04-14 08:51:00,SystemResetWarning,0828.1,5.01,000.00,025.8,025.1,000.0,034.3,027.6,011.8,0000.0,0004.34,0014.25,0002.87
2024-04-14 08:52:00,SystemResetWarning,0828.1,5.00,000.00,025.8,025.1,000.0,034.3,027.6,011.8,0000.0,0004.37,0014.67,0002.88
2024-04-14 08:53:00,SystemResetWarning,0828.1,4.99,000.00,025.8,025.1,000.0,034.3,027.6,011.9,0000.0,0004.38,0014.84,0002.89
2024-04-14 08:54:00,SystemResetWarning,0828.1,4.99,000.00,025.8,025.1,000.0,034.3,027.6,011.9,0000.0,0004.37,0014.41,0002.87
2024-04-14 08:55:00,SystemResetWarning,0828.0,5.01,000.00,025.8,025.1,000.0,034.3,027.6,011.9,0000.0,0004.40,0014.65,0002.87
2024-04-14 08:56:00,SystemResetWarning,0828.0,5.01,000.00,025.8,025.1,000.0,034.3,027.6,012.0,0000.0,0004.38,0014.59,0002.88
2024-04-14 08:57:00,SystemResetWarning,0827.9,5.00,000.00,025.8,025.0,000.0,034.3,027.6,012.0,0000.0,0004.36,0014.36,0002.87
2024-04-14 08:58:00,SystemResetWarning,0827.9,5.00,000.00,025.8,025.0,000.0,034.3,027.6,011.9,0000.0,0004.30,0014.07,0002.85
2024-04-14 08:59:00,SystemResetWarning,0827.9,5.00,000.00,025.8,025.0,000.0,034.3,027.6,011.9,0000.0,0004.30,0014.19,0002.84
